Regional Weather Roundup
Issued by NWS

Home | Current Version | Previous Version | Graphics & Text | Print | Product List | Glossary On
Versions: 1 2 3 4 5 6 7 8 9 10 11 12 13 14 15 16 17 18 19 20 21 22 23 24 25 26 27 28 29 30 31 32 33 34 35 36 37 38 39 40 41 42 43 44 45 46 47 48 49 50
000
ASUS45 KSLC 040510
RWRUT

UTAH REGIONAL WEATHER ROUNDUP
NATIONAL WEATHER SERVICE SALT LAKE CITY UT
1100 PM MDT THU SEP 03 2015

UTZ001>011-023>025-040600-

NORTHERN UTAH

CITY           SKY/WX    TMP DP  RH WIND       PRES   REMARKS
BRIGHAM CITY   MOCLDY    77  34  20 SE10      29.76S
HILL AFB       MOCLDY    76  35  22 S13       29.80S
LOGAN          CLEAR     60  49  66 SW6       29.80F
OGDEN          PTCLDY    76  35  22 S13       29.77S
PROVO AIRPORT  CLEAR     72  37  28 S9        29.84S
SALT LAKE CITY PTCLDY    79  34  19 S15       29.77S
VERNAL         PTCLDY    66  36  32 NW5       29.93R
WENDOVER       PTCLDY    73  34  23 NW9       29.76R
HEBER CITY     PTCLDY    72  28  20 S5        29.91S
WEST JORDAN    CLEAR     73  36  25 S9        29.82S

$$

UTZ012>022-026-027-040600-

SOUTHERN/CENTRAL UTAH

CITY           SKY/WX    TMP DP  RH WIND       PRES   REMARKS
BLANDING       PTCLDY    68  42  38 S10G21    30.12S
BRYCE CANYON   CLEAR     50  35  56 W8        30.15S
CEDAR CITY     CLEAR     69  25  19 S12       29.98R
DELTA          CLEAR     74  30  20 S15       29.87S
HANKSVILLE     CLEAR     73  32  21 SE5       29.91S
MILFORD        CLEAR     70  32  24 S13       29.91S
MOAB/CYNLANDS  CLEAR     74  37  26 SW12      29.89S
PRICE          PTCLDY    68  35  29 NE7       29.97S
ST GEORGE      PTCLDY    84  30  14 S14       29.82S
KANAB          CLEAR     61  48  63 CALM      30.02S

$$

REGIONAL REPORTS     COLORADO/ARIZONA

CITY           SKY/WX    TMP DP  RH WIND       PRES   REMARKS
CRAIG, CO      CLEAR     60  47  61 E10       30.06S
GRAND JUNCTION PTCLDY    70  50  49 E12       29.95S
RIFLE          MOCLDY    60  53  77 SE5       30.03S
MONTROSE       CLEAR     63  52  67 SE12      30.07S
CORTEZ         PTCLDY    61  45  55 N7        30.07S
PAGE, AZ       PTCLDY    77  50  38 S24G35    29.92R
GRAND CANYON   MOCLDY    64  40  41 S7        30.15S
KINGMAN        CLEAR     79  43  27 S10       29.90R
FLAGSTAFF      MOCLDY    58  54  86 S14       30.21R

$$

REGIONAL REPORTS    NEVADA/IDAHO/WYOMING

CITY           SKY/WX    TMP DP  RH WIND       PRES   REMARKS
LAS VEGAS, NV  CLEAR     88  30  12 S7        29.71R
ELY            CLEAR     62  22  21 S13       29.94S
ELKO           PTCLDY    65  34  31 NE5       29.84R
POCATELLO, ID  CLEAR     58  47  66 SW12      29.86R
BURLEY         CLEAR     57  40  52 SW10      29.86S
EVANSTON, WY   CLEAR     58  29  33 S9        30.00F
ROCK SPRINGS   PTCLDY    63  38  39 SE20      30.00R
KEMMERER       CLEAR     61  23  23 S7        30.02S

$$



USA.gov is the U.S. government's official web portal to all federal, state and local government web resources and services.